Вернуться в каталог

PRC TEST SPACECRAFT 4

АктивенНаукаVLEO
NORAD 67689·PAYLOAD·🇨🇳 China

Запущен Feb 7, 2026 с Jiuquan Satellite Launch Center

Loading…

Ближайшие Пролёты (ближайшие 24 часа)

TLE

СвежийSource: Space-Track

Эпоха: Sep 14, 2026, 22:09 UTC

1 67689U 26024A   26257.92336230 -.00000019  00000-0  22060-4 0  9995
2 67689  49.9933 214.4340 0005534  24.4607 335.6597 14.91965074 32833

Отслеживайте PRC TEST SPACECRAFT 4 в реальном времени с AllMySat

Download on the App Store